[[[{"header":{"parameterUnit":"kt","parameterCategory":2,"dx":1,"dy":1,"la1":30.253999710083008,"la2":30.299108505249023,"lo1":-89.0895004272461,"lo2":-89.04439544677734,"nx":28,"ny":28,"refTime":"2022-10-30T21:00:00:Z","depth":0,"parameterNumber":1,"parameterNumberName":"U-component_of_WINDS"},"data":[2.0033,2.012,2.0117,2.0215,2.0228,2.0295,2.0317,2.0346,2.0368,2.0446,2.0491,2.0495,2.0515,2.0567,2.0615,2.0616,2.0636,2.067,2.0666,2.0516,2.0495,2.0475,2.0454,2.0675,2.0675,2.0821,2.0822,2.0823,1.9926,1.994,1.9991,2.0037,2.008,2.0045,2.0079,2.0118,2.0178,2.0205,2.0248,2.0317,2.037,2.0378,2.0429,2.047,2.0456,2.0484,2.0481,2.0484,2.0324,2.0302,2.0494,2.0494,2.0494,2.0494,2.0494,2.0494,1.9729,1.9782,1.9807,1.9862,1.9884,1.9915,1.9964,1.9968,2.0018,2.007,2.0055,2.0123,2.0149,2.0207,2.0225,2.0278,2.0246,2.0275,2.0282,2.029,2.0299,2.0091,2.0286,2.0285,2.0285,2.0284,2.0284,0,1.9584,1.9577,1.9624,1.9672,1.9711,1.9747,1.9779,1.9809,1.9792,1.9833,1.9892,1.9926,1.9991,2.0046,2.0092,2.0105,2.0072,2.0068,2.0088,2.0097,2.0099,2.0099,1.9839,2.0062,2.006,2.0059,2.0058,2.0057,1.9385,1.9447,1.947,1.9505,1.9521,1.9576,1.9608,1.9588,1.9623,1.9659,1.9706,1.9761,1.9803,1.9899,1.9902,1.9951,1.9935,2.0021,1.9942,1.9948,1.9937,1.9934,1.994,2.0037,2.0039,2.0041,2.0043,0,1.9274,1.9266,1.9359,1.9376,1.9383,1.9448,1.9462,1.9513,1.9511,1.9581,1.9596,1.9593,1.9651,1.964,1.9704,1.9697,1.9805,1.9788,1.9796,1.9793,1.9869,1.9862,2.0116,2.0149,1.9919,1.9921,1.9923,0,1.9102,1.9183,1.9166,1.922,1.931,1.9287,1.9376,1.9382,1.9403,1.9458,1.9419,1.9471,1.9448,1.95,1.9489,1.9575,1.9587,1.9586,1.9582,1.959,1.959,1.9608,1.9597,1.957,1.9569,1.9568,1.9567,0,1.8929,1.9014,1.9102,1.912,1.9146,1.9188,1.92,1.9223,1.9254,1.9293,1.9313,1.936,1.9385,1.9422,1.9408,1.9355,1.9513,1.9437,1.9512,1.9513,1.9547,1.9546,1.9773,1.9565,1.9565,1.9564,1.9564,0,1.8788,1.8827,1.8956,1.8976,1.8999,1.9057,1.9101,1.9148,1.9175,1.9172,1.9202,1.9174,1.9247,1.9173,1.9275,1.921,1.9238,1.9244,1.9249,1.9255,1.9172,1.9303,1.952,1.9543,1.9261,1.9258,1.9256,0,1.8593,1.872,1.87,1.8823,1.888,1.8831,1.8895,1.892,1.892,1.8969,1.8969,1.9024,1.8966,1.8982,1.9034,1.9036,1.912,1.9025,1.9096,1.9098,1.909,1.9291,1.9326,1.9474,1.9223,1.9227,1.9229,0,1.844,1.8469,1.8492,1.8512,1.854,1.8587,1.866,1.8709,1.8743,1.8774,1.8836,1.8912,1.8872,1.8898,1.888,1.8934,1.9063,1.8883,1.8884,1.8917,1.9205,1.9239,1.9264,1.9039,1.9042,1.9046,1.9203,0,1.823,1.8292,1.8354,1.8397,1.8431,1.8507,1.8494,1.8532,1.851,1.8508,1.8598,1.8614,1.8664,1.8689,1.8668,1.8796,1.8773,1.8729,1.8655,1.8787,1.8838,1.8859,1.858,1.8577,1.8576,1.8574,0,0,1.8046,1.8133,1.8108,1.8178,1.8205,1.8153,1.8235,1.8255,1.8298,1.8318,1.8277,1.8388,1.8403,1.8513,1.8553,1.8573,1.8595,1.8549,1.8724,1.8741,1.8757,1.8812,1.8834,1.8571,1.857,1.8569,1.8569,0,1.7966,1.7982,1.8063,1.8083,1.8111,1.8105,1.8125,1.8143,1.8146,1.8232,1.8187,1.8239,1.8328,1.835,1.8373,1.8535,1.8499,1.8551,1.8644,1.8706,1.8725,1.8742,1.8801,1.8822,1.8564,1.8564,1.8565,0,1.7813,1.7827,1.7864,1.7923,1.7941,1.8001,1.7921,1.7986,1.803,1.7968,1.8055,1.8062,1.809,1.8195,1.8241,1.8205,1.8412,1.8344,1.8355,1.836,1.842,1.8443,1.8464,1.8191,1.819,1.8189,0,0,1.7747,1.7803,1.781,1.7905,1.7919,1.7911,1.7941,1.7922,1.7948,1.7958,1.7967,1.7994,1.8045,1.8079,1.8126,1.8243,1.8247,1.8298,1.8316,1.8331,1.8343,1.8407,1.843,1.8184,1.8184,1.8184,0,0,1.7714,1.7726,1.77,1.7808,1.7834,1.7847,1.7906,1.7874,1.7915,1.7904,1.7876,1.7882,1.7979,1.7988,1.7927,1.81,1.8028,1.8042,1.8091,1.8113,1.813,1.8126,1.7847,0,0,0,0,0,1.7625,1.7725,1.7701,1.7716,1.779,1.7861,1.787,1.7849,1.7798,1.7845,1.7847,1.7805,1.7949,1.7894,1.7911,1.7979,1.8123,1.8134,1.8144,1.8235,1.8258,1.8277,0,0,0,0,0,0,1.7632,1.7651,1.7698,1.7716,1.7732,1.7857,1.7767,1.7764,1.7792,1.7783,1.7806,1.7806,1.7789,1.7884,1.7899,1.7965,1.7841,1.8128,1.8137,1.8145,1.8242,1.8261,1.8278,0,0,0,0,0,1.7636,1.7652,1.7776,1.7714,1.7728,1.7724,1.7763,1.7759,1.7781,1.7784,1.7782,1.7762,1.7791,1.7802,1.7893,1.7959,1.7831,1.7836,1.8134,1.8141,1.8147,1.8252,0,0,0,0,0,0,1.764,1.765,1.7778,1.7781,1.7675,1.7716,1.7722,1.7756,1.7779,1.7779,1.7738,1.7731,1.7794,1.7802,1.7811,1.7958,1.7822,1.7828,1.7832,1.8139,1.8145,1.815,0,0,0,0,0,0,1.7641,1.7653,1.778,1.7731,1.7729,1.7709,1.7714,1.7788,1.778,1.7733,1.7727,1.7735,1.7781,1.7803,1.7809,1.7925,1.7815,1.7821,1.7825,1.7827,1.8144,1.8148,0,0,0,0,0,0,1.7646,1.7656,1.773,1.7728,1.7726,1.7764,1.7774,1.7851,1.7739,1.7732,1.7728,1.7723,1.7782,1.7789,1.7809,1.7922,1.7924,1.7816,1.7819,1.7822,1.7824,0,0,0,0,0,0,0,1.7649,1.7585,1.7757,1.7726,1.7724,1.7814,1.7815,1.7816,1.7738,1.7733,1.7729,1.7725,1.7784,1.779,1.7796,1.7919,0,0,1.7815,1.7818,0,0,0,0,0,0,0,0,1.758,1.7584,1.7757,1.7758,1.7759,1.7814,1.7815,1.7816,1.7737,1.7734,1.773,1.7727,1.7785,1.779,1.7795,0,0,0,0,0,0,0,0,0,0,0,0,0,0,0,1.7757,1.7758,0,1.7814,1.7815,1.7816,1.7736,1.7734,1.7731,1.7728,1.7787,1.7791,1.7795,0,0,0,0,0,0,0,0,0,0,0,0,0,0,0,0,0,0,0,0,0,0,0,0,0,0,0,0,0,0,0,0,0,0,0,0,0,0,0,0,0,0,0,0,0,0,0,0,0,0,0,0,0,0,0,0,0,0,0,0,0,0,0,0,0,0,0,0,0]}],[{"header":{"parameterUnit":"kt","parameterCategory":2,"dx":1,"dy":1,"la1":30.253999710083008,"la2":30.299108505249023,"lo1":-89.0895004272461,"lo2":-89.04439544677734,"nx":28,"ny":28,"refTime":"2022-10-30T21:00:00:Z","depth":0,"parameterNumber":2,"parameterNumberName":"V-component_of_WINDS"},"data":[-3.0119,-3.0167,-3.0185,-3.0248,-3.0275,-3.0321,-3.0344,-3.0375,-3.0405,-3.0463,-3.0501,-3.0524,-3.0562,-3.0611,-3.0653,-3.0663,-3.068,-3.0684,-3.0695,-3.0658,-3.0655,-3.0651,-3.064,-3.0687,-3.0688,-3.073,-3.073,-3.073,-3.0093,-3.012,-3.0158,-3.0207,-3.0241,-3.0248,-3.0288,-3.0315,-3.0357,-3.0394,-3.0431,-3.0485,-3.0529,-3.0566,-3.0613,-3.0637,-3.0643,-3.0648,-3.0646,-3.0652,-3.0614,-3.0603,-3.0642,-3.0642,-3.0642,-3.0642,-3.0642,-3.0642,-3.005,-3.0078,-3.0117,-3.0159,-3.0189,-3.0222,-3.0252,-3.028,-3.0318,-3.0368,-3.0382,-3.043,-3.047,-3.0535,-3.0561,-3.06,-3.0598,-3.0609,-3.0612,-3.0614,-3.0615,-3.0552,-3.0609,-3.0609,-3.0609,-3.0609,-3.0609,0,-3.0024,-3.0037,-3.0074,-3.0117,-3.0149,-3.0184,-3.022,-3.0239,-3.0272,-3.0303,-3.0348,-3.0378,-3.0436,-3.0482,-3.0529,-3.0554,-3.0565,-3.0568,-3.0576,-3.0569,-3.0558,-3.0564,-3.0502,-3.0565,-3.0565,-3.0565,-3.0565,-3.0565,-2.9982,-3.0012,-3.0062,-3.0086,-3.0109,-3.0148,-3.0175,-3.0202,-3.0229,-3.0277,-3.0301,-3.0347,-3.0384,-3.0455,-3.0488,-3.0532,-3.0537,-3.056,-3.0544,-3.0537,-3.0538,-3.0535,-3.0539,-3.0562,-3.0562,-3.0562,-3.0563,0,-2.9956,-2.9984,-3.0037,-3.0083,-3.0096,-3.0126,-3.0166,-3.0196,-3.0219,-3.0263,-3.0275,-3.0311,-3.0356,-3.0385,-3.0442,-3.0455,-3.0508,-3.0513,-3.0495,-3.0497,-3.052,-3.0518,-3.059,-3.0601,-3.0553,-3.0553,-3.0554,0,-2.9931,-2.997,-3.0009,-3.0038,-3.0082,-3.0108,-3.0151,-3.0175,-3.0209,-3.0244,-3.026,-3.0292,-3.0324,-3.0361,-3.0381,-3.0429,-3.044,-3.0453,-3.0458,-3.0452,-3.045,-3.0466,-3.0464,-3.0468,-3.0467,-3.0467,-3.0467,0,-2.9888,-2.9954,-3.0001,-3.0021,-3.0074,-3.0095,-3.0119,-3.0157,-3.0183,-3.0221,-3.0238,-3.0282,-3.0305,-3.0339,-3.0364,-3.0352,-3.0424,-3.0413,-3.0437,-3.0437,-3.0451,-3.045,-3.0507,-3.0466,-3.0466,-3.0466,-3.0466,0,-2.9871,-2.9909,-2.9972,-3.0017,-3.0033,-3.0064,-3.0108,-3.0141,-3.018,-3.0194,-3.0225,-3.0238,-3.0282,-3.0269,-3.0331,-3.0308,-3.0331,-3.0348,-3.035,-3.0355,-3.0339,-3.0368,-3.042,-3.0427,-3.0361,-3.036,-3.036,0,-2.9815,-2.9886,-2.9908,-2.9968,-3.0005,-3.0019,-3.0054,-3.0088,-3.011,-3.0145,-3.017,-3.021,-3.0206,-3.0222,-3.0249,-3.0276,-3.0306,-3.0273,-3.0324,-3.0326,-3.0313,-3.0362,-3.0362,-3.0406,-3.0349,-3.035,-3.0351,0,-2.9773,-2.9836,-2.9845,-2.9868,-2.9916,-2.9947,-2.9987,-3.0032,-3.0054,-3.009,-3.0125,-3.0181,-3.0181,-3.0207,-3.0223,-3.0249,-3.0286,-3.0245,-3.0246,-3.0251,-3.0345,-3.0346,-3.0353,-3.0291,-3.0292,-3.0294,-3.0342,0,-2.9742,-2.9781,-2.9807,-2.9857,-2.9885,-2.9923,-2.9952,-2.9978,-2.9989,-3.0011,-3.0063,-3.0097,-3.0143,-3.0158,-3.0169,-3.022,-3.0216,-3.0215,-3.0203,-3.0235,-3.0252,-3.0259,-3.0176,-3.0176,-3.0176,-3.0176,0,0,-2.9681,-2.9736,-2.9758,-2.9798,-2.9822,-2.9836,-2.9875,-2.9901,-2.9953,-2.997,-2.9964,-3.0048,-3.0076,-3.0136,-3.0148,-3.0166,-3.0178,-3.0165,-3.022,-3.0225,-3.0229,-3.0247,-3.0253,-3.0176,-3.0176,-3.0176,-3.0176,0,-2.9675,-2.9702,-2.974,-2.9767,-2.9809,-2.983,-2.9839,-2.9882,-2.9898,-2.9948,-2.9958,-2.9993,-3.0058,-3.0087,-3.011,-3.0159,-3.0165,-3.0171,-3.0188,-3.0218,-3.0222,-3.0227,-3.0245,-3.0251,-3.0175,-3.0175,-3.0175,0,-2.9639,-2.9671,-2.9692,-2.9748,-2.9775,-2.9812,-2.9808,-2.9847,-2.9875,-2.9887,-2.9936,-2.9959,-3.0,-3.0052,-3.0076,-3.0072,-3.0151,-3.0131,-3.0133,-3.0136,-3.0166,-3.0172,-3.0177,-3.0108,-3.0108,-3.0107,0,0,-2.963,-2.9666,-2.9707,-2.9749,-2.9765,-2.9796,-2.9819,-2.9832,-2.9867,-2.9881,-2.991,-2.9945,-2.9984,-3.0008,-3.0046,-3.0099,-3.011,-3.0121,-3.0125,-3.0127,-3.0131,-3.0163,-3.0168,-3.0106,-3.0106,-3.0106,0,0,-2.9626,-2.9675,-2.968,-2.9731,-2.9764,-2.9808,-2.9833,-2.984,-2.9876,-2.9875,-2.9899,-2.9909,-2.9958,-2.998,-2.9959,-3.0043,-3.0031,-3.0037,-3.0026,-3.0031,-3.0034,-3.0027,-2.9959,0,0,0,0,0,-2.9633,-2.9669,-2.9673,-2.9686,-2.9756,-2.9806,-2.9815,-2.9836,-2.9827,-2.9847,-2.9872,-2.9876,-2.9974,-2.9956,-2.9969,-2.9992,-3.0089,-3.0092,-3.0095,-3.0094,-3.0098,-3.0102,0,0,0,0,0,0,-2.9638,-2.9654,-2.9672,-2.9717,-2.9733,-2.9805,-2.9795,-2.9802,-2.9826,-2.9826,-2.9871,-2.9878,-2.9897,-2.9951,-2.9962,-2.9983,-2.9955,-3.009,-3.0093,-3.0095,-3.0095,-3.0099,-3.0102,0,0,0,0,0,-2.9643,-2.9655,-2.9763,-2.9716,-2.973,-2.9767,-2.9794,-2.9799,-2.9818,-2.9858,-2.9864,-2.9832,-2.9897,-2.9907,-2.9958,-2.9978,-2.9948,-2.9952,-3.0092,-3.0094,-3.0095,-3.0097,0,0,0,0,0,0,-2.9646,-2.9661,-2.9766,-2.9771,-2.9704,-2.9763,-2.9773,-2.9797,-2.9849,-2.9856,-2.9819,-2.9818,-2.9897,-2.9905,-2.9914,-2.9975,-2.9942,-2.9946,-2.9948,-3.0093,-3.0095,-3.0096,0,0,0,0,0,0,-2.9654,-2.9665,-2.9769,-2.9752,-2.9755,-2.9759,-2.9768,-2.9814,-2.9849,-2.9807,-2.9809,-2.9818,-2.9885,-2.9904,-2.991,-2.9981,-2.9937,-2.9941,-2.9944,-2.9945,-3.0094,-3.0096,0,0,0,0,0,0,-2.9659,-2.9668,-2.9751,-2.9753,-2.9756,-2.9815,-2.98,-2.9872,-2.9834,-2.9805,-2.9832,-2.983,-2.9884,-2.9891,-2.9908,-2.9976,-2.998,-2.9937,-2.994,-2.9942,-2.9943,0,0,0,0,0,0,0,-2.9663,-2.9596,-2.9736,-2.9755,-2.9757,-2.9818,-2.982,-2.9821,-2.9834,-2.9833,-2.9832,-2.9831,-2.9915,-2.9919,-2.9923,-2.9972,0,0,-2.9937,-2.9939,0,0,0,0,0,0,0,0,-2.9593,-2.9595,-2.9736,-2.9737,-2.9738,-2.9819,-2.982,-2.9821,-2.9834,-2.9833,-2.9832,-2.9831,-2.9916,-2.9919,-2.9923,0,0,0,0,0,0,0,0,0,0,0,0,0,0,0,-2.9736,-2.9737,0,-2.9819,-2.982,-2.9821,-2.9834,-2.9833,-2.9832,-2.9832,-2.9917,-2.992,-2.9922,0,0,0,0,0,0,0,0,0,0,0,0,0,0,0,0,0,0,0,0,0,0,0,0,0,0,0,0,0,0,0,0,0,0,0,0,0,0,0,0,0,0,0,0,0,0,0,0,0,0,0,0,0,0,0,0,0,0,0,0,0,0,0,0,0,0,0,0,0]}]]]